Location: Ferma
(41.9500°N, 44.5167°E)
Time: 18:30:42
(UTC+00:00)

X-37B - Pass Details

Date: 24 October 2021
Orbit: 330 x 341 km, 45.0° (Epoch: 20 November)

Event Time Altitude Azimuth Distance (km) Brightness Sun altitude
Rises 16:10:37 0° 287° (WNW) 2,126 5.7 -23.6°
Reaches altitude 10° 16:12:42 10° 279° (W) 1,284 4.3 -24.0°
Enters shadow 16:14:02 23° 264° (W) 792 2.9 -24.3°
